Weather History for Blythe, CA

Change the Weather History Date:

Saturday, September 14, 2013

  Actual Average Record
Temperature  
Mean Temperature 91 °F -  
Max Temperature 106 °F 100 °F 111 °F (1971)
Min Temperature 77 °F 73 °F 61 °F (1985)
Cooling Degree Days 26    
Growing Degree Days 41 (Base 50)    
Moisture  
Dew Point 52 °F    
Average Humidity 28    
Maximum Humidity 54    
Minimum Humidity 13    
Precipitation  
Precipitation 0.00 in - - ()
Sea Level Pressure  
Sea Level Pressure 29.59 in    
Wind  
Wind Speed 3 mph (ESE)    
Max Wind Speed 8 mph    
Max Gust Speed -    
Visibility 10 miles    
Events      
Averages and records for this station are not official NWS values.
T = Trace of Precipitation, MM = Missing Value Source: NWS Daily Summary

Daily Weather History Graph

Daily Weather History Graph

Search for Another Location

Airport:

Trip Planner

Search our weather history database for the weather conditions in past years. The results will help you decide how hot, cold, wet, or windy it might be!

Date:

Astronomy

Sep. 14, 2013 Rise Set
Actual Time 6:21 AM PDT 6:46 PM PDT
Civil Twilight 5:56 AM PDT 7:11 PM PDT
Nautical Twilight 5:27 AM PDT 7:40 PM PDT
Astronomical Twilight 4:57 AM PDT 8:10 PM PDT
Moon 3:20 PM PDT (9/14) 1:09 AM PDT (9/14)
Length of Visible Light 13h 14m
Length of Day
12h 24m
Waxing Gibbous, 73% of the Moon is Illuminated
Sep 14
Waxing Gibbous
Sep 19
Full
Sep 26
Last Quarter
Oct 4
New
Oct 11
First Quarter

Hourly Weather History & Observations

Time (PDT) Temp. Heat Index Dew Point Humidity Pressure Visibility Wind Dir Wind Speed Gust Speed Precip Events Conditions
12:52 AM 86.0 °F 84.2 °F 54.0 °F 33% 29.59 in 10.0 mi NNW 3.5 mph - N/A   Clear
1:52 AM 84.0 °F 83.0 °F 55.9 °F 38% 29.59 in 10.0 mi NW 4.6 mph - N/A   Clear
2:52 AM 81.0 °F 80.8 °F 55.9 °F 42% 29.59 in 10.0 mi NW 3.5 mph - N/A   Clear
3:52 AM 78.1 °F - 60.1 °F 54% 29.59 in 10.0 mi Calm Calm - N/A   Clear
4:52 AM 79.0 °F - 59.0 °F 50% 29.60 in 10.0 mi Calm Calm - N/A   Clear
5:52 AM 78.1 °F - 55.9 °F 46% 29.60 in 10.0 mi Calm Calm - N/A   Clear
6:52 AM 77.0 °F - 55.9 °F 48% 29.62 in 10.0 mi Calm Calm - N/A   Clear
7:52 AM 82.9 °F 82.0 °F 55.0 °F 38% 29.63 in 10.0 mi Calm Calm - N/A   Clear
8:52 AM 88.0 °F - 48.0 °F 25% 29.64 in 10.0 mi SW 3.5 mph - N/A   Clear
9:52 AM 93.9 °F - 48.9 °F 21% 29.65 in 10.0 mi Calm Calm - N/A   Clear
10:52 AM 98.1 °F - 50.0 °F 20% 29.65 in 10.0 mi North 3.5 mph - N/A   Clear
11:52 AM 99.0 °F 96.5 °F 53.1 °F 21% 29.64 in 10.0 mi East 4.6 mph - N/A   Clear
12:52 PM 102.0 °F 99.7 °F 53.1 °F 19% 29.61 in 10.0 mi ENE 5.8 mph - N/A   Clear
1:52 PM 102.9 °F - 50.0 °F 17% 29.59 in 10.0 mi ENE 4.6 mph - N/A   Clear
2:52 PM 105.1 °F - 46.0 °F 14% 29.56 in 10.0 mi ESE 3.5 mph - N/A   Partly Cloudy
3:52 PM 104.0 °F - 45.0 °F 14% 29.55 in 10.0 mi South 5.8 mph - N/A   Partly Cloudy
4:52 PM 105.1 °F - 45.0 °F 13% 29.54 in 10.0 mi SE 4.6 mph - N/A   Partly Cloudy
5:52 PM 102.9 °F - 45.0 °F 14% 29.54 in 10.0 mi SSE 8.1 mph - N/A   Partly Cloudy
6:52 PM 99.0 °F - 48.9 °F 18% 29.54 in 10.0 mi SE 5.8 mph - N/A   Partly Cloudy
7:52 PM 96.1 °F - 50.0 °F 21% 29.56 in 10.0 mi SE 4.6 mph - N/A   Clear
8:52 PM 93.0 °F - 51.1 °F 24% 29.58 in 10.0 mi Calm Calm - N/A   Clear
9:52 PM 88.0 °F - 51.1 °F 28% 29.58 in 10.0 mi Calm Calm - N/A   Clear
10:52 PM 87.1 °F 84.9 °F 53.1 °F 31% 29.59 in 10.0 mi Calm Calm - N/A   Clear
11:52 PM 84.9 °F - 50.0 °F 30% 29.60 in 10.0 mi WNW 5.8 mph - N/A   Clear